Погода в Суходоле

Россия / Самарская область     53°54′08″N   51°12′55″E
темп.,
°C
ветер,
м/с
пор.,
м/с
влажн.,
%
обл.,
%
осадки,
мм/ч
давл.,
гПа
погр.,
м
13 апреля, вт
вт1301:00+8в249369 0.0 103687
04:00+7в229050 0.0 103614
07:00+7вюв229798 0.0 1037170
10:00+11вюв3479100 0.0 1037301
13:00+16юв456219 0.0 1035668
16:00+19ююв455223 0.0 10341127
19:00+15юв33645 0.0 103341
22:00+12юв227155 0.0 103319
14 апреля, ср
ср1401:00+9юв22745 0.0 103324
04:00+7юв22895 0.0 103311
07:00+8вюв239416 0.0 103284
10:00+12юв567426 0.0 1031480
13:00+16юв56617 0.0 1029776
16:00+17юв56505 0.0 10271158
19:00+14юв36650 0.0 1026107
22:00+11юв36780 0.0 1026107
15 апреля, чт
чт1501:00+9юв22810 0.0 102525
04:00+8вюв22780 0.0 102512
07:00+8вюв23760 0.0 102473
10:00+14ююв46605 0.0 1023414
13:00+18ю4646100 0.0 1021892
16:00+20ююз45395 0.0 10201266
19:00+17ю22515 0.0 101911
22:00+13ю22600 0.0 101910
16 апреля, пт
пт1601:00+11ююз116428 0.0 101910
04:00+10ссв11676 0.0 101910
07:00+10ссв227228 0.0 101915
10:00+15св345320 0.0 1019464
13:00+18ссв44417 0.0 10191309
16:00+18ссв554350 0.0 10191785
19:00+13св696849 0.0 1020513
22:00+10св5107533 0.0 1022477
17 апреля, сб
сб1701:00+8св510705 0.0 1023387
04:00+6св511726 0.0 1024394
07:00+5св497454 0.0 1025376
10:00+9св67455 0.0 1025826
13:00+11св67345 0.0 10241276
16:00+12св663321 0.0 10241461
19:00+10ссв46410 0.0 1024224
22:00+6ссв22520 0.0 102533